Hourly Data Report for November 11, 2004

TORONTO CITY
ONTARIO

43°40'00.000" N
79°24'00.000" W
112.50 m
6158355
71508
XTO

Download Data

Hourly Data (November 2004)
Hourly Data Report for November 11, 2004
TIME
LST
Temp Definition
°C
Dew Point Definition
°C
Rel Hum Definition
%
Precip. Amount Definition
mm

Wind Dir Definition
10's deg

Wind Spd Definition
km/h
Visibility Definition
km
Stn Press Definition
kPa
Hmdx Definition


Wind Chill Definition


Weather Definition


00:00 11.5 5.2 65   LegendMM LegendMM LegendMM 100.33     LegendNANA
01:00 11.1 6.1 71   LegendMM LegendMM LegendMM 100.29     LegendNANA
02:00 10.9 6.2 73   LegendMM LegendMM LegendMM 100.24     LegendNANA
03:00 11.3 6.2 71   LegendMM LegendMM LegendMM 100.25     LegendNANA
04:00 12.4 5.5 63   LegendMM LegendMM LegendMM 100.22     LegendNANA
05:00 12.3 5.6 64   LegendMM LegendMM LegendMM 100.29     LegendNANA
06:00 9.7 6.4 80   LegendMM LegendMM LegendMM 100.43     LegendNANA
07:00 7.8 4.0 77   LegendMM LegendMM LegendMM 100.61     LegendNANA
08:00 6.6 3.1 78   LegendMM LegendMM LegendMM 100.80     LegendNANA
09:00 4.9 -0.8 67   LegendMM LegendMM LegendMM 100.96     LegendNANA
10:00 4.9 -3.5 54   LegendMM LegendMM LegendMM 101.12     LegendNANA
11:00 5.2 -3.1 55   LegendMM LegendMM LegendMM 101.23     LegendNANA
12:00 5.4 -3.5 53   LegendMM LegendMM LegendMM 101.28     LegendNANA
13:00 5.0 -3.3 55   LegendMM LegendMM LegendMM 101.33     LegendNANA
14:00 4.9 -5.0 49   LegendMM LegendMM LegendMM 101.36     LegendNANA
15:00 4.4 -5.9 47   LegendMM LegendMM LegendMM 101.38     LegendNANA
16:00 4.0 -5.7 49   LegendMM LegendMM LegendMM 101.41     LegendNANA
17:00 3.3 -7.8 44   LegendMM LegendMM LegendMM 101.46     LegendNANA
18:00 3.1 -7.7 45   LegendMM LegendMM LegendMM 101.51     LegendNANA
19:00 2.8 -7.0 48   LegendMM LegendMM LegendMM 101.52     LegendNANA
20:00 2.5 -7.3 48   LegendMM LegendMM LegendMM 101.50     LegendNANA
21:00 1.9 -7.0 52   LegendMM LegendMM LegendMM 101.52     LegendNANA
22:00 1.5 -6.8 54   LegendMM LegendMM LegendMM 101.49     LegendNANA
23:00 1.2 -6.7 56   LegendMM LegendMM LegendMM 101.50     LegendNANA

Notes on Data Quality.

Legend

  • E = Estimated
  • M = Missing
  • NA = Not Available*
  • [empty] = Indicates an unobserved value
Date modified: